TimeCST,TemperatureF,Dew PointF,Humidity,Sea Level PressureIn,VisibilityMPH,Wind Direction,Wind SpeedMPH,Gust SpeedMPH,PrecipitationIn,Events,Conditions,WindDirDegrees,DateUTC
12:53 AM,39.9,33.1,77,30.27,10.0,NNE,4.6,-,N/A,,Clear,30,2012-12-13 06:53:00
1:53 AM,39.0,32.0,76,30.27,10.0,NNE,6.9,-,N/A,,Clear,20,2012-12-13 07:53:00
2:53 AM,37.9,32.0,79,30.28,10.0,NNE,8.1,-,N/A,,Clear,30,2012-12-13 08:53:00
3:53 AM,37.9,33.1,83,30.28,10.0,NNE,6.9,-,N/A,,Clear,20,2012-12-13 09:53:00
4:53 AM,37.0,33.1,86,30.26,10.0,NE,6.9,-,N/A,,Clear,40,2012-12-13 10:53:00
5:53 AM,37.0,33.1,86,30.28,10.0,NNE,6.9,-,N/A,,Clear,30,2012-12-13 11:53:00
6:53 AM,37.9,33.1,83,30.29,10.0,NE,8.1,-,N/A,,Clear,40,2012-12-13 12:53:00
7:53 AM,42.1,35.1,76,30.30,10.0,NE,8.1,-,N/A,,Clear,40,2012-12-13 13:53:00
8:53 AM,52.0,42.1,69,30.30,10.0,NE,8.1,-,N/A,,Clear,50,2012-12-13 14:53:00
9:53 AM,61.0,44.1,54,30.32,10.0,East,10.4,-,N/A,,Clear,80,2012-12-13 15:53:00
10:53 AM,66.0,43.0,43,30.32,10.0,East,10.4,-,N/A,,Clear,100,2012-12-13 16:53:00
11:53 AM,68.0,41.0,37,30.30,10.0,ESE,13.8,-,N/A,,Clear,120,2012-12-13 17:53:00
12:53 PM,68.0,43.0,40,30.27,10.0,SE,12.7,-,N/A,,Clear,140,2012-12-13 18:53:00
1:53 PM,66.0,45.0,47,30.25,10.0,ESE,11.5,-,N/A,,Overcast,110,2012-12-13 19:53:00
2:53 PM,66.0,46.9,50,30.24,10.0,ESE,11.5,-,N/A,,Overcast,110,2012-12-13 20:53:00
3:53 PM,64.9,48.0,54,30.23,10.0,East,12.7,-,N/A,,Overcast,100,2012-12-13 21:53:00
4:53 PM,64.4,46.4,52,30.21,10.0,East,15.0,-,N/A,,Overcast,90,2012-12-13 22:53:00
6:53 PM,62.6,48.2,59,30.20,10.0,East,13.8,17.3,N/A,,Overcast,80,2012-12-14 00:53:00
7:53 PM,62.1,48.0,60,30.21,10.0,East,13.8,-,N/A,,Overcast,80,2012-12-14 01:53:00
8:53 PM,62.1,48.9,62,30.22,10.0,East,11.5,-,N/A,,Overcast,90,2012-12-14 02:53:00
9:53 PM,62.1,50.0,65,30.21,10.0,East,9.2,66.7,N/A,,Overcast,80,2012-12-14 03:53:00
10:53 PM,62.1,51.1,67,30.20,10.0,East,8.1,-,N/A,,Overcast,80,2012-12-14 04:53:00
11:53 PM,62.6,51.8,68,30.19,10.0,East,6.9,-,N/A,,Overcast,80,2012-12-14 05:53:00